Terug naar catalogus

DELTA 1 DEB

ActiefLEO
NORAD 18470·DEBRIS·🇺🇸 United States

Gelanceerd Nov 6, 1973 vanaf Vandenberg Space Force Base

Loading…

Volgende Passages (komende 24 uur)

TLE

VersSource: Space-Track

Epoch: Sep 14, 2026, 08:54 UTC

1 18470U 73086GU  26257.37099823 -.00000242  00000-0 -21976-2 0  9994
2 18470 101.7989  42.9941 0180246 295.3231  89.5673 12.06647181830164

Volg DELTA 1 DEB in realtime met AllMySat

Download on the App Store